Regional Weather Roundup
Issued by NWS

Home | Current Version | Previous Version | Graphics & Text | Print | Product List | Glossary Off
Versions: 1 2 3 4 5 6 7 8 9 10 11 12 13 14 15 16 17 18 19 20 21 22 23 24 25 26 27 28 29 30 31 32 33 34 35 36 37 38 39 40 41 42 43 44 45 46 47 48 49 50

000
ASUS43 KMKX 192111
RWRWI

WISCONSIN REGIONAL WEATHER ROUNDUP
NATIONAL WEATHER SERVICE MILWAUKEE/SULLIVAN WI
400 PM CDT SUN APR 19 2015

NOTE: "FAIR" INDICATES FEW OR NO CLOUDS BELOW 12,000 FEET WITH NO
SIGNIFICANT WEATHER AND/OR OBSTRUCTIONS TO VISIBILITY.

WIZ001-002-006>008-014>016-023>028-192200-
NORTHWEST WISCONSIN

CITY           SKY/WX    TMP DP  RH WIND       PRES   REMARKS
SUPERIOR ARPT  CLOUDY    36  36  99 NE8       29.61F FOG     WCI  30
ASHLAND        CLOUDY    50  42  74 N8        29.58F
HAYWARD        CLOUDY    56  42  59 S7        29.58F
SIREN          CLOUDY    55  50  83 W6        29.57F HAZE
CUMBERLAND     RAIN      54  46  76 CALM      29.57F
RICE LAKE      CLOUDY    58  44  58 E9        29.58F
CHETEK         CLOUDY    58  44  60 SE10G16   29.58F
LADYSMITH      LGT RAIN  52  46  80 S3        29.62F
EAU CLAIRE     LGT RAIN  54  44  69 CALM      29.57F
MENOMONIE      PTSUNNY   60  46  60 E12       29.57F
NEW RICHMOND   RAIN      53  52  97 W13       29.58S
OSCEOLA        CLOUDY    55  49  82 W8        29.61S
$$

WIZ003>005-009-010-017-018-192200-
NORTH CENTRAL WISCONSIN

CITY           SKY/WX    TMP DP  RH WIND       PRES   REMARKS
MANITOWISH WTR CLOUDY    57  38  50 S7        29.60F
ARBOR VITAE    CLOUDY    62  38  41 S12       29.60F
WOODRUFF       CLOUDY    62  38  41 S12       29.60F
RHINELANDER    CLOUDY    61  35  37 S10       29.62F
EAGLE RIVER    PTSUNNY   60  31  34 SE8       29.62F
LAND O LAKES   CLOUDY    61  33  36 SE8G21    29.62F
PHILLIPS       CLOUDY    51  46  81 CALM      29.60F
TOMAHAWK       CLOUDY    61  36  40 SE6       29.61F
MEDFORD        CLOUDY    62  42  47 S6        29.59F
MERRILL        CLOUDY    62  38  40 SE6       29.61F
$$

WIZ029-030-035-036-043>047-192200-
CENTRAL WISCONSIN

CITY           SKY/WX    TMP DP  RH WIND       PRES   REMARKS
WAUSAU         CLOUDY    65  37  35 SE16      29.58F
MOSINEE        PTSUNNY   64  36  34 SE9       29.61F
MARSHFIELD     CLOUDY    68  39  34 SE10      29.58F
STEVENS POINT  CLOUDY    65  37  34 E15       29.59F
WAUPACA        PTSUNNY   70  33  26 E15       29.61F
WAUTOMA        PTSUNNY   71  36  27 SE10      29.58F
WISC RAPIDS    CLOUDY    72  36  26 SE10      29.58F
CAMP DOUGLAS   CLOUDY    71  40  32 VRB3      29.53F
$$

WIZ011>013-019>022-031-037>040-048>050-192200-
NORTHEAST WISCONSIN

CITY           SKY/WX    TMP DP  RH WIND       PRES   REMARKS
ANTIGO         PTSUNNY   62  37  39 SE16      29.63F
SHAWANO        PTSUNNY   65  34  31 SE12      29.65F
OCONTO         PTSUNNY   58  32  37 NE10      29.66F
STURGEON BAY   PTSUNNY   57  30  35 NE6       29.70F
GREEN BAY      PTSUNNY   60  39  45 NE16      29.65F
MANITOWOC      MOSUNNY   56  34  43 NE10      29.65F
APPLETON       PTSUNNY   66  34  30 SE14      29.63F
CLINTONVILLE   PTSUNNY   66  34  30 SE14      29.63F
OSHKOSH        PTSUNNY   68  37  32 E12       29.60F
$$

WIZ032>034-041-042-053>061-192200-
SOUTHWEST WISCONSIN

CITY           SKY/WX    TMP DP  RH WIND       PRES   REMARKS
LA CROSSE      LGT RAIN  55  48  77 NW5       29.56F
SPARTA         CLOUDY    66  40  39 CALM      29.57F
VIROQUA        CLOUDY    65  43  44 CALM      29.55F
BOSCOBEL       PTSUNNY   77  43  29 N9        29.51F
PRAIRIE DU CHI CLOUDY    68  43  40 NW10      29.51F
PLATTEVILLE    PTSUNNY   74  43  33 E9        29.50F
$$

WIZ056-057-062-063-064-067-068-192200-
SOUTH CENTRAL WISCONSIN

CITY           SKY/WX    TMP DP  RH WIND       PRES   REMARKS
REEDSBURG      PTSUNNY   73  44  34 SE7       29.53F
BARABOO/DELLS  PTSUNNY   72  39  30 SE6       29.53F
LONE ROCK      CLOUDY    75  46  35 E6        29.51F
MINERAL POINT  PTSUNNY   73  39  29 E5        29.52F
MADISON        CLOUDY    71  40  32 E15       29.54F
MIDDLETON      CLOUDY    73  36  25 E13       29.53F
WATERTOWN      FAIR      65  37  34 E14       29.57F
MONROE         CLOUDY    72  43  35 E13       29.52F
JANESVILLE     CLOUDY    72  36  26 SE16G23   29.54F
$$

WIZ051-052-058>065-066-070>072-192200-
SOUTHEAST WISCONSIN

CITY           SKY/WX    TMP DP  RH WIND       PRES   REMARKS
MILWAUKEE      CLOUDY    50  33  52 NE9       29.61F
WAUKESHA       NOT AVBL
MILWAUKEE/TIMM SUNNY     59  28  31 E8        29.63F
RACINE         CLOUDY    48  34  58 N10       29.61F
BURLINGTON     CLOUDY    62  32  32 E14       29.57F
KENOSHA        CLOUDY    58  35  42 NE12      29.59F
FOND DU LAC    MOSUNNY   68  36  30 SE13      29.60F
SHEBOYGAN      MOSUNNY   56  36  47 NE12      29.63F
WEST BEND      MOSUNNY   63  30  29 E10       29.61F
JUNEAU         MOSUNNY   66  36  33 E20       29.59F
$$

LSZ147-162-192200-
LAKE SUPERIOR

STATION/POSITION TIME  TEMP    WIND        PRES    WAVE
                       AIR SEA DIR/SP/G            HT/PER
                 (UTC) (F)     (DEG/KT/KT) (MB)    (FT/S)
DEVILS ISLAND    2100   36      50/ 13/ 14 1003.0F
PORT WING        2000   38      30/ 15/ 17 1003.0F
SAXON HARBOR     2040   55     190/  6/ 13 1001.7F
$$

LMZ867-665-643>646-192200-
LAKE MICHIGAN

STATION/POSITION TIME  TEMP    WIND        PRES    WAVE
                       AIR SEA DIR/SP/G            HT/PER
                 (UTC) (F)     (DEG/KT/KT) (MB)    (FT/S)
CHAMBERS ISLAND  2000   40     360/  8/  9 1007.5F
NORTHPORT PIER   2100   42      70/ 15/ 20 1005.8F
KEWAUNEE LAKESHO 2000   44      30/ 12/ 16 1005.3F
SHEBOYGAN LAKESH 2100   42      10/ 14/ 15 1004.4F
PORT WASHINGTON  2040   49      50/  7/  8 1004.4F
MILWAUKEE LAKESH 2000   49      20/  8/ 10   N/A
KENOSHA   LAKESH 2100   47      20/ 15/ 18 1002.0F
$$

TC  - TEMPERATURE IN CELSIUS
VSB - VISIBILITY IN STATUTE MILES
WCI - WIND CHILL INDEX
HX  - HEAT INDEX




USA.gov is the U.S. government's official web portal to all federal, state and local government web resources and services.